Year,Month,Day,Hour,Minute,Value (Times are PST for windspeed in km/hr)
2020,07,10,00,00,2.30
2020,07,10,00,01,3.40
2020,07,10,00,02,2.10
2020,07,10,00,03,6.40
2020,07,10,00,04,4.00
2020,07,10,00,05,3.50
2020,07,10,00,06,5.20
2020,07,10,00,07,1.40
2020,07,10,00,08,0.30
2020,07,10,00,09,3.70
2020,07,10,00,10,3.40
2020,07,10,00,11,6.70
2020,07,10,00,12,7.20
2020,07,10,00,13,4.70
2020,07,10,00,14,4.50
2020,07,10,00,15,4.90
2020,07,10,00,16,6.80
2020,07,10,00,17,7.30
2020,07,10,00,18,1.50
2020,07,10,00,19,6.90
2020,07,10,00,20,5.00
2020,07,10,00,21,2.40
2020,07,10,00,22,5.20
2020,07,10,00,23,3.60
2020,07,10,00,24,2.60
2020,07,10,00,25,1.30
2020,07,10,00,26,4.80
2020,07,10,00,27,1.80
2020,07,10,00,28,1.40
2020,07,10,00,29,8.10
2020,07,10,00,30,6.90
2020,07,10,00,31,0.20
2020,07,10,00,32,4.50
2020,07,10,00,33,4.60
2020,07,10,00,34,2.30
2020,07,10,00,35,4.70
2020,07,10,00,36,4.80
2020,07,10,00,37,2.00
2020,07,10,00,38,4.10
2020,07,10,00,39,7.00
2020,07,10,00,40,2.50
2020,07,10,00,41,6.80
2020,07,10,00,42,3.40
2020,07,10,00,43,4.80
2020,07,10,00,44,6.10
2020,07,10,00,45,3.60
2020,07,10,00,46,2.50
2020,07,10,00,47,0.60
2020,07,10,00,48,0.20
2020,07,10,00,49,2.20
2020,07,10,00,50,3.90
2020,07,10,00,51,5.60
2020,07,10,00,52,3.50
2020,07,10,00,53,4.90
2020,07,10,00,54,1.90
2020,07,10,00,55,1.10
2020,07,10,00,56,4.20
2020,07,10,00,57,3.00
2020,07,10,00,58,3.50
2020,07,10,00,59,7.60
2020,07,10,01,00,3.90
2020,07,10,01,01,4.00
2020,07,10,01,02,2.70
2020,07,10,01,03,2.80
2020,07,10,01,04,1.30
2020,07,10,01,05,4.10
2020,07,10,01,06,2.10
2020,07,10,01,07,5.80
2020,07,10,01,08,4.70
2020,07,10,01,09,5.30
2020,07,10,01,10,1.50
2020,07,10,01,11,2.80
2020,07,10,01,12,2.10
2020,07,10,01,13,0.30
2020,07,10,01,14,4.20
2020,07,10,01,15,2.50
2020,07,10,01,16,5.30
2020,07,10,01,17,3.20
2020,07,10,01,18,4.90
2020,07,10,01,19,3.00
2020,07,10,01,20,3.60
2020,07,10,01,21,6.10
2020,07,10,01,22,2.80
2020,07,10,01,23,4.80
2020,07,10,01,24,2.80
2020,07,10,01,25,4.10
2020,07,10,01,26,5.70
2020,07,10,01,27,7.00
2020,07,10,01,28,7.40
2020,07,10,01,29,5.10
2020,07,10,01,30,4.70
2020,07,10,01,31,6.00
2020,07,10,01,32,5.70
2020,07,10,01,33,2.50
2020,07,10,01,34,7.10
2020,07,10,01,35,4.70
2020,07,10,01,36,2.20
2020,07,10,01,37,0.10
2020,07,10,01,38,2.00
2020,07,10,01,39,1.60
2020,07,10,01,40,0.40
2020,07,10,01,41,6.30
2020,07,10,01,42,6.40
2020,07,10,01,43,2.30
2020,07,10,01,44,4.60
2020,07,10,01,45,4.30
2020,07,10,01,46,4.50
2020,07,10,01,47,3.60
2020,07,10,01,48,3.10
2020,07,10,01,49,4.20
2020,07,10,01,50,3.00
2020,07,10,01,51,2.50
2020,07,10,01,52,4.50
2020,07,10,01,53,1.80
2020,07,10,01,54,1.90
2020,07,10,01,55,4.90
2020,07,10,01,56,2.70
2020,07,10,01,57,3.50
2020,07,10,01,58,6.20
2020,07,10,01,59,7.10
2020,07,10,02,00,6.20
2020,07,10,02,01,5.60
2020,07,10,02,02,2.60
2020,07,10,02,03,5.80
2020,07,10,02,04,2.50
2020,07,10,02,05,4.70
2020,07,10,02,06,1.60
2020,07,10,02,07,0.10
2020,07,10,02,08,0.00
2020,07,10,02,09,3.80
2020,07,10,02,10,1.80
2020,07,10,02,11,4.70
2020,07,10,02,12,3.10
2020,07,10,02,13,5.60
2020,07,10,02,14,4.60
2020,07,10,02,15,6.20
2020,07,10,02,16,2.70
2020,07,10,02,17,6.00
2020,07,10,02,18,3.90
2020,07,10,02,19,5.80
2020,07,10,02,20,5.40
2020,07,10,02,21,6.50
2020,07,10,02,22,12.30
2020,07,10,02,23,5.30
2020,07,10,02,24,9.50
2020,07,10,02,25,5.10
2020,07,10,02,26,7.40
2020,07,10,02,27,2.40
2020,07,10,02,28,9.80
2020,07,10,02,29,6.80
2020,07,10,02,30,7.50
2020,07,10,02,31,4.00
2020,07,10,02,32,6.20
2020,07,10,02,33,8.60
2020,07,10,02,34,6.90
2020,07,10,02,35,6.80
2020,07,10,02,36,8.90
2020,07,10,02,37,6.50
2020,07,10,02,38,10.70
2020,07,10,02,39,4.90
2020,07,10,02,40,4.30
2020,07,10,02,41,9.70
2020,07,10,02,42,6.90
2020,07,10,02,43,7.20
2020,07,10,02,44,10.70
2020,07,10,02,45,10.30
2020,07,10,02,46,7.70
2020,07,10,02,47,9.70
2020,07,10,02,48,3.00
2020,07,10,02,49,2.70
2020,07,10,02,50,3.70
2020,07,10,02,51,1.00
2020,07,10,02,52,11.00
2020,07,10,02,53,5.60
2020,07,10,02,54,2.90
2020,07,10,02,55,0.00
2020,07,10,02,56,1.90
2020,07,10,02,57,4.60
2020,07,10,02,58,5.90
2020,07,10,02,59,1.10
2020,07,10,03,00,1.50
2020,07,10,03,01,5.60
2020,07,10,03,02,2.60
2020,07,10,03,03,3.80
2020,07,10,03,04,4.40
2020,07,10,03,05,5.00
2020,07,10,03,06,6.40
2020,07,10,03,07,4.50
2020,07,10,03,08,4.60
2020,07,10,03,09,3.10
2020,07,10,03,10,0.80
2020,07,10,03,11,5.40
2020,07,10,03,12,5.30
2020,07,10,03,13,0.30
2020,07,10,03,14,0.80
2020,07,10,03,15,0.00
2020,07,10,03,16,0.00
2020,07,10,03,17,0.70
2020,07,10,03,18,0.10
2020,07,10,03,19,3.40
2020,07,10,03,20,1.20
2020,07,10,03,21,1.40
2020,07,10,03,22,5.50
2020,07,10,03,23,5.70
2020,07,10,03,24,5.60
2020,07,10,03,25,2.40
2020,07,10,03,26,9.10
2020,07,10,03,27,4.30
2020,07,10,03,28,3.00
2020,07,10,03,29,0.30
2020,07,10,03,30,0.50
2020,07,10,03,31,0.90
2020,07,10,03,32,4.00
2020,07,10,03,33,2.50
2020,07,10,03,34,0.00
2020,07,10,03,35,2.50
2020,07,10,03,36,6.30
2020,07,10,03,37,2.50
2020,07,10,03,38,9.70
2020,07,10,03,39,0.90
2020,07,10,03,40,7.40
2020,07,10,03,41,1.20
2020,07,10,03,42,1.80
2020,07,10,03,43,0.50
2020,07,10,03,44,0.70
2020,07,10,03,45,1.70
2020,07,10,03,46,3.70
2020,07,10,03,47,1.60
2020,07,10,03,48,2.20
2020,07,10,03,49,3.60
2020,07,10,03,50,0.60
2020,07,10,03,51,0.00
2020,07,10,03,52,0.00
2020,07,10,03,53,0.00
2020,07,10,03,54,0.00
2020,07,10,03,55,1.60
2020,07,10,03,56,2.70
2020,07,10,03,57,3.10
2020,07,10,03,58,0.20
2020,07,10,03,59,2.60
2020,07,10,04,00,2.00
2020,07,10,04,01,4.20
2020,07,10,04,02,4.50
2020,07,10,04,03,2.80
2020,07,10,04,04,2.40
2020,07,10,04,05,3.60
2020,07,10,04,06,3.60
2020,07,10,04,07,5.10
2020,07,10,04,08,0.80
2020,07,10,04,09,1.80
2020,07,10,04,10,4.00
2020,07,10,04,11,3.20
2020,07,10,04,12,2.70
2020,07,10,04,13,5.00
2020,07,10,04,14,6.30
2020,07,10,04,15,0.90
2020,07,10,04,16,0.80
2020,07,10,04,17,1.40
2020,07,10,04,18,6.50
2020,07,10,04,19,4.20
2020,07,10,04,20,5.00
2020,07,10,04,21,7.30
2020,07,10,04,22,6.20
2020,07,10,04,23,5.80
2020,07,10,04,24,7.80
2020,07,10,04,25,4.90
2020,07,10,04,26,6.10
2020,07,10,04,27,7.30
2020,07,10,04,28,8.90
2020,07,10,04,29,6.10
2020,07,10,04,30,6.60
2020,07,10,04,31,6.40
2020,07,10,04,32,8.70
2020,07,10,04,33,7.10
2020,07,10,04,34,9.30
2020,07,10,04,35,11.20
2020,07,10,04,36,11.30
2020,07,10,04,37,7.40
2020,07,10,04,38,6.20
2020,07,10,04,39,8.60
2020,07,10,04,40,6.40
2020,07,10,04,41,7.30
2020,07,10,04,42,10.00
2020,07,10,04,43,10.40
2020,07,10,04,44,6.00
2020,07,10,04,45,7.40
2020,07,10,04,46,11.20
2020,07,10,04,47,4.70
2020,07,10,04,48,4.70
2020,07,10,04,49,8.10
2020,07,10,04,50,7.90
2020,07,10,04,51,6.00
2020,07,10,04,52,7.60
2020,07,10,04,53,9.40
2020,07,10,04,54,11.90
2020,07,10,04,55,5.70
2020,07,10,04,56,3.80
2020,07,10,04,57,3.20
2020,07,10,04,58,5.20
2020,07,10,04,59,1.00
2020,07,10,05,00,1.90
2020,07,10,05,01,1.40
2020,07,10,05,02,0.30
2020,07,10,05,03,4.70
2020,07,10,05,04,4.50
2020,07,10,05,05,6.10
2020,07,10,05,06,10.30
2020,07,10,05,07,7.00
2020,07,10,05,08,8.30
2020,07,10,05,09,9.70
2020,07,10,05,10,4.30
2020,07,10,05,11,6.50
2020,07,10,05,12,12.50
2020,07,10,05,13,6.80
2020,07,10,05,14,7.60
2020,07,10,05,15,7.90
2020,07,10,05,16,7.70
2020,07,10,05,17,5.80
2020,07,10,05,18,13.80
2020,07,10,05,19,12.20
2020,07,10,05,20,7.60
2020,07,10,05,21,8.80
2020,07,10,05,22,8.60
2020,07,10,05,23,8.00
2020,07,10,05,24,8.60
2020,07,10,05,25,8.60
2020,07,10,05,26,13.60
2020,07,10,05,27,6.40
2020,07,10,05,28,10.60
2020,07,10,05,29,10.50
2020,07,10,05,30,9.00
2020,07,10,05,31,9.90
2020,07,10,05,32,8.00
2020,07,10,05,33,5.00
2020,07,10,05,34,8.10
2020,07,10,05,35,9.10
2020,07,10,05,36,10.30
2020,07,10,05,37,7.30
2020,07,10,05,38,6.90
2020,07,10,05,39,5.90
2020,07,10,05,40,5.50
2020,07,10,05,41,7.00
2020,07,10,05,42,10.70
2020,07,10,05,43,10.60
2020,07,10,05,44,7.40
2020,07,10,05,45,8.00
2020,07,10,05,46,7.30
2020,07,10,05,47,5.80
2020,07,10,05,48,5.80
2020,07,10,05,49,6.80
2020,07,10,05,50,6.80
2020,07,10,05,51,9.60
2020,07,10,05,52,6.90
2020,07,10,05,53,7.60
2020,07,10,05,54,6.60
2020,07,10,05,55,5.60
2020,07,10,05,56,4.70
2020,07,10,05,57,11.40
2020,07,10,05,58,6.90
2020,07,10,05,59,4.90
2020,07,10,06,00,2.30
2020,07,10,06,01,3.00
2020,07,10,06,02,8.40
2020,07,10,06,03,6.40
2020,07,10,06,04,4.90
2020,07,10,06,05,10.60
2020,07,10,06,06,7.80
2020,07,10,06,07,13.70
2020,07,10,06,08,6.00
2020,07,10,06,09,5.60
2020,07,10,06,10,4.90
2020,07,10,06,11,7.30
2020,07,10,06,12,6.70
2020,07,10,06,13,8.90
2020,07,10,06,14,5.20
2020,07,10,06,15,5.60
2020,07,10,06,16,8.80
2020,07,10,06,17,6.40
2020,07,10,06,18,4.40
2020,07,10,06,19,7.90
2020,07,10,06,20,9.00
2020,07,10,06,21,8.60
2020,07,10,06,22,7.70
2020,07,10,06,23,6.90
2020,07,10,06,24,7.00
2020,07,10,06,25,2.40
2020,07,10,06,26,3.60
2020,07,10,06,27,5.30
2020,07,10,06,28,4.70
2020,07,10,06,29,0.70
2020,07,10,06,30,2.30
2020,07,10,06,31,0.90
2020,07,10,06,32,1.70
2020,07,10,06,33,2.80
2020,07,10,06,34,3.70
2020,07,10,06,35,1.60
2020,07,10,06,36,0.00
2020,07,10,06,37,1.00
2020,07,10,06,38,0.00
2020,07,10,06,39,3.10
2020,07,10,06,40,1.60
2020,07,10,06,41,4.00
2020,07,10,06,42,4.30
2020,07,10,06,43,6.10
2020,07,10,06,44,1.30
2020,07,10,06,45,5.30
2020,07,10,06,46,4.30
2020,07,10,06,47,1.70
2020,07,10,06,48,9.10
2020,07,10,06,49,9.80
2020,07,10,06,50,3.60
2020,07,10,06,51,5.20
2020,07,10,06,52,3.40
2020,07,10,06,53,13.10
2020,07,10,06,54,6.80
2020,07,10,06,55,5.20
2020,07,10,06,56,7.10
2020,07,10,06,57,4.70
2020,07,10,06,58,12.40
2020,07,10,06,59,9.50
2020,07,10,07,00,5.90
2020,07,10,07,01,7.00
2020,07,10,07,02,11.10
2020,07,10,07,03,7.10
2020,07,10,07,04,7.10
2020,07,10,07,05,6.10
2020,07,10,07,06,4.00
2020,07,10,07,07,7.10
2020,07,10,07,08,5.80
2020,07,10,07,09,5.50
2020,07,10,07,10,6.90
2020,07,10,07,11,4.10
2020,07,10,07,12,2.10
2020,07,10,07,13,2.10
2020,07,10,07,14,3.70
2020,07,10,07,15,6.60
2020,07,10,07,16,8.60
2020,07,10,07,17,5.80
2020,07,10,07,18,0.70
2020,07,10,07,19,12.00
2020,07,10,07,20,7.00
2020,07,10,07,21,9.10
2020,07,10,07,22,7.50
2020,07,10,07,23,10.50
2020,07,10,07,24,8.90
2020,07,10,07,25,6.20
2020,07,10,07,26,8.60
2020,07,10,07,27,5.10
2020,07,10,07,28,7.20
2020,07,10,07,29,13.10
2020,07,10,07,30,11.50
2020,07,10,07,31,6.00
2020,07,10,07,32,5.90
2020,07,10,07,33,6.40
2020,07,10,07,34,5.90
2020,07,10,07,35,4.90
2020,07,10,07,36,4.70
2020,07,10,07,37,6.00
2020,07,10,07,38,3.40
2020,07,10,07,39,4.60
2020,07,10,07,40,3.90
2020,07,10,07,41,4.80
2020,07,10,07,42,0.80
2020,07,10,07,43,7.20
2020,07,10,07,44,16.30
2020,07,10,07,45,10.50
2020,07,10,07,46,11.60
2020,07,10,07,47,16.40
2020,07,10,07,48,14.10
2020,07,10,07,49,11.50
2020,07,10,07,50,15.20
2020,07,10,07,51,5.80
2020,07,10,07,52,6.00
2020,07,10,07,53,2.00
2020,07,10,07,54,8.60
2020,07,10,07,55,12.60
2020,07,10,07,56,7.10
2020,07,10,07,57,9.10
2020,07,10,07,58,8.60
2020,07,10,07,59,11.30
2020,07,10,08,00,19.90
2020,07,10,08,01,10.30
2020,07,10,08,02,6.50
2020,07,10,08,03,6.70
2020,07,10,08,04,13.90
2020,07,10,08,05,14.10
2020,07,10,08,06,14.60
2020,07,10,08,07,11.40
2020,07,10,08,08,5.80
2020,07,10,08,09,11.30
2020,07,10,08,10,15.90
2020,07,10,08,11,9.70
2020,07,10,08,12,6.50
2020,07,10,08,13,1.80
2020,07,10,08,14,12.00
2020,07,10,08,15,16.90
2020,07,10,08,16,16.80
2020,07,10,08,17,11.60
2020,07,10,08,18,3.70
2020,07,10,08,19,10.80
2020,07,10,08,20,7.40
2020,07,10,08,21,6.50
2020,07,10,08,22,3.70
2020,07,10,08,23,4.00
2020,07,10,08,24,5.20
2020,07,10,08,25,4.20
2020,07,10,08,26,9.00
2020,07,10,08,27,10.30
2020,07,10,08,28,7.90
2020,07,10,08,29,11.50
2020,07,10,08,30,14.20
2020,07,10,08,31,14.00
2020,07,10,08,32,13.60
2020,07,10,08,33,8.90
2020,07,10,08,34,10.10
2020,07,10,08,35,5.30
2020,07,10,08,36,9.60
2020,07,10,08,37,6.80
2020,07,10,08,38,7.10
2020,07,10,08,39,6.70
2020,07,10,08,40,4.40
2020,07,10,08,41,3.50
2020,07,10,08,42,3.90
2020,07,10,08,43,3.10
2020,07,10,08,44,1.40
2020,07,10,08,45,3.00
2020,07,10,08,46,7.20
2020,07,10,08,47,6.40
2020,07,10,08,48,8.60
2020,07,10,08,49,15.20
2020,07,10,08,50,9.00
2020,07,10,08,51,6.50
2020,07,10,08,52,3.30
2020,07,10,08,53,6.10
2020,07,10,08,54,6.80
2020,07,10,08,55,7.70
2020,07,10,08,56,3.00
2020,07,10,08,57,4.90
2020,07,10,08,58,4.10
2020,07,10,08,59,4.00
2020,07,10,09,00,4.00
2020,07,10,09,01,3.60
2020,07,10,09,02,9.00
2020,07,10,09,03,5.70
2020,07,10,09,04,9.50
2020,07,10,09,05,8.50
2020,07,10,09,06,7.10
2020,07,10,09,07,2.50
2020,07,10,09,08,2.50
2020,07,10,09,09,6.90
2020,07,10,09,10,6.60
2020,07,10,09,11,6.60
2020,07,10,09,12,1.80
2020,07,10,09,13,15.80
2020,07,10,09,14,10.10
2020,07,10,09,15,4.40
2020,07,10,09,16,3.80
2020,07,10,09,17,3.80
2020,07,10,09,18,1.90
2020,07,10,09,19,4.90
2020,07,10,09,20,4.40
2020,07,10,09,21,17.70
2020,07,10,09,22,15.00
2020,07,10,09,23,14.60
2020,07,10,09,24,7.20
2020,07,10,09,25,3.70
2020,07,10,09,26,7.30
2020,07,10,09,27,8.60
2020,07,10,09,28,3.10
2020,07,10,09,29,7.20
2020,07,10,09,30,8.20
2020,07,10,09,31,11.40
2020,07,10,09,32,10.20
2020,07,10,09,33,12.30
2020,07,10,09,34,16.30
2020,07,10,09,35,18.30
2020,07,10,09,36,6.20
2020,07,10,09,37,10.00
2020,07,10,09,38,6.90
2020,07,10,09,39,8.30
2020,07,10,09,40,16.10
2020,07,10,09,41,10.20
2020,07,10,09,42,13.60
2020,07,10,09,43,11.30
2020,07,10,09,44,4.30
2020,07,10,09,45,2.30
2020,07,10,09,46,3.10
2020,07,10,09,47,8.30
2020,07,10,09,48,14.80
2020,07,10,09,49,14.90
2020,07,10,09,50,15.20
2020,07,10,09,51,7.90
2020,07,10,09,52,13.10
2020,07,10,09,53,13.90
2020,07,10,09,54,9.10
2020,07,10,09,55,13.40
2020,07,10,09,56,8.10
2020,07,10,09,57,9.20
2020,07,10,09,58,10.50
2020,07,10,09,59,13.30
2020,07,10,10,00,16.20
2020,07,10,10,01,12.90
2020,07,10,10,02,12.50
2020,07,10,10,03,14.60
2020,07,10,10,04,12.90
2020,07,10,10,05,10.30
2020,07,10,10,06,6.90
2020,07,10,10,07,3.00
2020,07,10,10,08,7.30
2020,07,10,10,09,13.90
2020,07,10,10,10,18.00
2020,07,10,10,11,12.20
2020,07,10,10,12,14.20
2020,07,10,10,13,13.30
2020,07,10,10,14,13.90
2020,07,10,10,15,14.30
2020,07,10,10,16,9.40
2020,07,10,10,17,16.90
2020,07,10,10,18,14.10
2020,07,10,10,19,16.90
2020,07,10,10,20,11.90
2020,07,10,10,21,14.40
2020,07,10,10,22,8.10
2020,07,10,10,23,3.20
2020,07,10,10,24,1.40
2020,07,10,10,25,6.60
2020,07,10,10,26,12.20
2020,07,10,10,27,7.20
2020,07,10,10,28,10.30
2020,07,10,10,29,9.80
2020,07,10,10,30,10.30
2020,07,10,10,31,5.60
2020,07,10,10,32,8.40
2020,07,10,10,33,2.50
2020,07,10,10,34,6.30
2020,07,10,10,35,5.50
2020,07,10,10,36,9.10
2020,07,10,10,37,10.80
2020,07,10,10,38,10.00
2020,07,10,10,39,13.00
2020,07,10,10,40,9.30
2020,07,10,10,41,15.20
2020,07,10,10,42,11.10
2020,07,10,10,43,13.80
2020,07,10,10,44,7.90
2020,07,10,10,45,5.00
2020,07,10,10,46,9.80
2020,07,10,10,47,17.10
2020,07,10,10,48,15.00
2020,07,10,10,49,11.30
2020,07,10,10,50,11.00
2020,07,10,10,51,7.40
2020,07,10,10,52,6.10
2020,07,10,10,53,6.40
2020,07,10,10,54,8.10
2020,07,10,10,55,2.00
2020,07,10,10,56,0.00
2020,07,10,10,57,4.60
2020,07,10,10,58,4.10
2020,07,10,10,59,10.40
2020,07,10,11,00,12.20
2020,07,10,11,01,8.50
2020,07,10,11,02,11.40
2020,07,10,11,03,11.00
2020,07,10,11,04,4.40
2020,07,10,11,05,12.30
2020,07,10,11,06,11.90
2020,07,10,11,07,10.40
2020,07,10,11,08,6.40
2020,07,10,11,09,8.10
2020,07,10,11,10,10.30
2020,07,10,11,11,6.30
2020,07,10,11,12,5.50
2020,07,10,11,13,6.20
2020,07,10,11,14,8.60
2020,07,10,11,15,6.40
2020,07,10,11,16,3.90
2020,07,10,11,17,5.40
2020,07,10,11,18,4.30
2020,07,10,11,19,5.10
2020,07,10,11,20,11.90
2020,07,10,11,21,9.70
2020,07,10,11,22,4.60
2020,07,10,11,23,8.80
2020,07,10,11,24,4.90
2020,07,10,11,25,6.40
2020,07,10,11,26,4.10
2020,07,10,11,27,7.90
2020,07,10,11,28,5.70
2020,07,10,11,29,3.50
2020,07,10,11,30,9.50
2020,07,10,11,31,9.00
2020,07,10,11,32,13.60
2020,07,10,11,33,11.70
2020,07,10,11,34,10.40
2020,07,10,11,35,7.10
2020,07,10,11,36,2.30
2020,07,10,11,37,1.40
2020,07,10,11,38,1.40
2020,07,10,11,39,7.10
2020,07,10,11,40,9.00
2020,07,10,11,41,4.90
2020,07,10,11,42,7.50
2020,07,10,11,43,6.20
2020,07,10,11,44,1.30
2020,07,10,11,45,2.70
2020,07,10,11,46,2.10
2020,07,10,11,47,0.20
2020,07,10,11,48,1.30
2020,07,10,11,49,7.20
2020,07,10,11,50,2.40
2020,07,10,11,51,10.40
2020,07,10,11,52,7.20
2020,07,10,11,53,9.70
2020,07,10,11,54,9.70
2020,07,10,11,55,10.80
2020,07,10,11,56,10.70
2020,07,10,11,57,11.60
2020,07,10,11,58,7.00
2020,07,10,11,59,2.50
2020,07,10,12,00,7.40
2020,07,10,12,01,13.40
2020,07,10,12,02,6.90
2020,07,10,12,03,4.50
2020,07,10,12,04,9.50
2020,07,10,12,05,7.60
2020,07,10,12,06,6.00
2020,07,10,12,07,6.80
2020,07,10,12,08,7.80
2020,07,10,12,09,8.90
2020,07,10,12,10,8.40
2020,07,10,12,11,6.00
2020,07,10,12,12,6.40
2020,07,10,12,13,5.50
2020,07,10,12,14,4.50
2020,07,10,12,15,4.70
2020,07,10,12,16,1.30
2020,07,10,12,17,0.40
2020,07,10,12,18,1.10
2020,07,10,12,19,1.00
2020,07,10,12,20,0.60
2020,07,10,12,21,3.20
2020,07,10,12,22,4.20
2020,07,10,12,23,1.70
2020,07,10,12,24,5.30
2020,07,10,12,25,0.40
2020,07,10,12,26,0.20
2020,07,10,12,27,0.10
2020,07,10,12,28,8.60
2020,07,10,12,29,5.20
2020,07,10,12,30,4.10
2020,07,10,12,31,4.10
2020,07,10,12,32,3.20
2020,07,10,12,33,9.20
2020,07,10,12,34,7.70
2020,07,10,12,35,11.40
2020,07,10,12,36,8.10
2020,07,10,12,37,4.00
2020,07,10,12,38,9.40
2020,07,10,12,39,7.00
2020,07,10,12,40,2.30
2020,07,10,12,41,5.70
2020,07,10,12,42,4.30
2020,07,10,12,43,6.90
2020,07,10,12,44,5.30
2020,07,10,12,45,4.60
2020,07,10,12,46,5.00
2020,07,10,12,47,6.30
2020,07,10,12,48,1.80
2020,07,10,12,49,7.70
2020,07,10,12,50,1.00
2020,07,10,12,51,4.30
2020,07,10,12,52,4.70
2020,07,10,12,53,3.70
2020,07,10,12,54,5.50
2020,07,10,12,55,3.80
2020,07,10,12,56,1.10
2020,07,10,12,57,3.20
2020,07,10,12,58,3.40
2020,07,10,12,59,3.70
2020,07,10,13,00,8.50
2020,07,10,13,01,5.00
2020,07,10,13,02,8.40
2020,07,10,13,03,9.10
2020,07,10,13,04,9.10
2020,07,10,13,05,5.80
2020,07,10,13,06,2.20
2020,07,10,13,07,4.90
2020,07,10,13,08,3.50
2020,07,10,13,09,3.30
2020,07,10,13,10,5.30
2020,07,10,13,11,5.80
2020,07,10,13,12,6.80
2020,07,10,13,13,7.30
2020,07,10,13,14,5.40
2020,07,10,13,15,6.90
2020,07,10,13,16,5.40
2020,07,10,13,17,6.80
2020,07,10,13,18,4.20
2020,07,10,13,19,5.80
2020,07,10,13,20,2.10
2020,07,10,13,21,9.80
2020,07,10,13,22,9.70
2020,07,10,13,23,7.00
2020,07,10,13,24,7.90
2020,07,10,13,25,5.40
2020,07,10,13,26,6.60
2020,07,10,13,27,6.20
2020,07,10,13,28,4.30
2020,07,10,13,29,9.30
2020,07,10,13,30,4.10
2020,07,10,13,31,2.80
2020,07,10,13,32,7.40
2020,07,10,13,33,6.60
2020,07,10,13,34,6.30
2020,07,10,13,35,7.30
2020,07,10,13,36,8.20
2020,07,10,13,37,5.10
2020,07,10,13,38,6.00
2020,07,10,13,39,5.00
2020,07,10,13,40,4.50
2020,07,10,13,41,4.40
2020,07,10,13,42,5.80
2020,07,10,13,43,7.30
2020,07,10,13,44,5.80
2020,07,10,13,45,4.20
2020,07,10,13,46,8.10
2020,07,10,13,47,8.10
2020,07,10,13,48,6.80
2020,07,10,13,49,7.20
2020,07,10,13,50,5.70
2020,07,10,13,51,6.70
2020,07,10,13,52,2.50
2020,07,10,13,53,4.50
2020,07,10,13,54,4.10
2020,07,10,13,55,2.40
2020,07,10,13,56,5.00
2020,07,10,13,57,0.60
2020,07,10,13,58,9.20
2020,07,10,13,59,7.80
2020,07,10,14,00,2.60
2020,07,10,14,01,4.80
2020,07,10,14,02,5.80
2020,07,10,14,03,3.20
2020,07,10,14,04,5.50
2020,07,10,14,05,3.80
2020,07,10,14,06,3.80
2020,07,10,14,07,2.60
2020,07,10,14,08,0.60
2020,07,10,14,09,4.00
2020,07,10,14,10,3.00
2020,07,10,14,11,9.50
2020,07,10,14,12,6.40
2020,07,10,14,13,8.60
2020,07,10,14,14,5.30
2020,07,10,14,15,5.00
2020,07,10,14,16,1.40
2020,07,10,14,17,10.80
2020,07,10,14,18,8.60
2020,07,10,14,19,7.80
2020,07,10,14,20,6.10
2020,07,10,14,21,3.40
2020,07,10,14,22,3.40
2020,07,10,14,23,6.30
2020,07,10,14,24,1.40
2020,07,10,14,25,4.90
2020,07,10,14,26,4.00
2020,07,10,14,27,4.90
2020,07,10,14,28,5.90
2020,07,10,14,29,4.60
2020,07,10,14,30,3.90
2020,07,10,14,31,2.00
2020,07,10,14,32,3.40
2020,07,10,14,33,6.50
2020,07,10,14,34,0.80
2020,07,10,14,35,1.50
2020,07,10,14,36,0.60
2020,07,10,14,37,5.20
2020,07,10,14,38,3.10
2020,07,10,14,39,1.70
2020,07,10,14,40,1.60
2020,07,10,14,41,2.40
2020,07,10,14,42,2.30
2020,07,10,14,43,4.50
2020,07,10,14,44,0.20
2020,07,10,14,45,2.70
2020,07,10,14,46,4.60
2020,07,10,14,47,0.80
2020,07,10,14,48,0.70
2020,07,10,14,49,1.20
2020,07,10,14,50,1.90
2020,07,10,14,51,5.10
2020,07,10,14,52,4.10
2020,07,10,14,53,3.10
2020,07,10,14,54,7.20
2020,07,10,14,55,4.10
2020,07,10,14,56,3.10
2020,07,10,14,57,5.30
2020,07,10,14,58,0.20
2020,07,10,14,59,2.40
2020,07,10,15,00,6.10
2020,07,10,15,01,7.40
2020,07,10,15,02,7.40
2020,07,10,15,03,5.60
2020,07,10,15,04,8.00
2020,07,10,15,05,3.50
2020,07,10,15,06,4.10
2020,07,10,15,07,1.30
2020,07,10,15,08,4.70
2020,07,10,15,09,1.30
2020,07,10,15,10,2.20
2020,07,10,15,11,2.60
2020,07,10,15,12,3.00
2020,07,10,15,13,2.50
2020,07,10,15,14,4.80
2020,07,10,15,15,3.60
2020,07,10,15,16,2.00
2020,07,10,15,17,5.40
2020,07,10,15,18,11.30
2020,07,10,15,19,9.50
2020,07,10,15,20,8.50
2020,07,10,15,21,6.40
2020,07,10,15,22,7.60
2020,07,10,15,23,11.70
2020,07,10,15,24,11.40
2020,07,10,15,25,9.70
2020,07,10,15,26,6.10
2020,07,10,15,27,8.90
2020,07,10,15,28,6.90
2020,07,10,15,29,4.40
2020,07,10,15,30,4.10
2020,07,10,15,31,7.90
2020,07,10,15,32,11.20
2020,07,10,15,33,9.10
2020,07,10,15,34,3.40
2020,07,10,15,35,3.40
2020,07,10,15,36,13.30
2020,07,10,15,37,11.10
2020,07,10,15,38,13.80
2020,07,10,15,39,6.30
2020,07,10,15,40,8.10
2020,07,10,15,41,5.60
2020,07,10,15,42,5.60
2020,07,10,15,43,12.70
2020,07,10,15,44,8.70
2020,07,10,15,45,5.80
2020,07,10,15,46,7.70
2020,07,10,15,47,8.70
2020,07,10,15,48,3.90
2020,07,10,15,49,6.60
2020,07,10,15,50,8.80
2020,07,10,15,51,9.70
2020,07,10,15,52,14.80
2020,07,10,15,53,18.50
2020,07,10,15,54,13.50
2020,07,10,15,55,23.90
2020,07,10,15,56,11.60
2020,07,10,15,57,14.80
2020,07,10,15,58,10.90
2020,07,10,15,59,13.80
2020,07,10,16,00,14.50
2020,07,10,16,01,8.60
2020,07,10,16,02,4.50
2020,07,10,16,03,8.90
2020,07,10,16,04,12.20
2020,07,10,16,05,17.20
2020,07,10,16,06,15.20
2020,07,10,16,07,9.50
2020,07,10,16,08,14.60
2020,07,10,16,09,3.70
2020,07,10,16,10,3.60
2020,07,10,16,11,6.30
2020,07,10,16,12,11.10
2020,07,10,16,13,9.20
2020,07,10,16,14,12.10
2020,07,10,16,15,10.70
2020,07,10,16,16,10.40
2020,07,10,16,17,12.50
2020,07,10,16,18,11.80
2020,07,10,16,19,12.60
2020,07,10,16,20,16.70
2020,07,10,16,21,19.60
2020,07,10,16,22,17.90
2020,07,10,16,23,11.20
2020,07,10,16,24,17.10
2020,07,10,16,25,12.60
2020,07,10,16,26,9.70
2020,07,10,16,27,13.60
2020,07,10,16,28,8.60
2020,07,10,16,29,10.70
2020,07,10,16,30,6.10
2020,07,10,16,31,9.40
2020,07,10,16,32,14.60
2020,07,10,16,33,18.70
2020,07,10,16,34,9.80
2020,07,10,16,35,12.10
2020,07,10,16,36,19.50
2020,07,10,16,37,9.90
2020,07,10,16,38,12.60
2020,07,10,16,39,13.30
2020,07,10,16,40,11.00
2020,07,10,16,41,8.90
2020,07,10,16,42,6.90
2020,07,10,16,43,4.60
2020,07,10,16,44,10.10
2020,07,10,16,45,16.40
2020,07,10,16,46,15.00
2020,07,10,16,47,16.30
2020,07,10,16,48,13.40
2020,07,10,16,49,19.20
2020,07,10,16,50,7.00
2020,07,10,16,51,7.80
2020,07,10,16,52,8.60
2020,07,10,16,53,10.50
2020,07,10,16,54,19.80
2020,07,10,16,55,10.80
2020,07,10,16,56,17.40
2020,07,10,16,57,15.20
2020,07,10,16,58,14.60
2020,07,10,16,59,14.50
2020,07,10,17,00,6.90
2020,07,10,17,01,11.80
2020,07,10,17,02,12.20
2020,07,10,17,03,16.90
2020,07,10,17,04,13.00
2020,07,10,17,05,14.30
2020,07,10,17,06,14.80
2020,07,10,17,07,16.50
2020,07,10,17,08,15.60
2020,07,10,17,09,16.90
2020,07,10,17,10,6.00
2020,07,10,17,11,9.00
2020,07,10,17,12,10.50
2020,07,10,17,13,18.00
2020,07,10,17,14,14.70
2020,07,10,17,15,18.20
2020,07,10,17,16,21.70
2020,07,10,17,17,13.00
2020,07,10,17,18,17.70
2020,07,10,17,19,16.90
2020,07,10,17,20,8.80
2020,07,10,17,21,8.60
2020,07,10,17,22,15.20
2020,07,10,17,23,9.60
2020,07,10,17,24,10.70
2020,07,10,17,25,17.30
2020,07,10,17,26,14.50
2020,07,10,17,27,12.90
2020,07,10,17,28,20.00
2020,07,10,17,29,16.30
2020,07,10,17,30,14.10
2020,07,10,17,31,16.20
2020,07,10,17,32,14.60
2020,07,10,17,33,18.60
2020,07,10,17,34,10.80
2020,07,10,17,35,10.80
2020,07,10,17,36,16.20
2020,07,10,17,37,11.10
2020,07,10,17,38,9.40
2020,07,10,17,39,11.90
2020,07,10,17,40,13.10
2020,07,10,17,41,18.30
2020,07,10,17,42,15.70
2020,07,10,17,43,15.40
2020,07,10,17,44,18.10
2020,07,10,17,45,16.70
2020,07,10,17,46,13.20
2020,07,10,17,47,13.40
2020,07,10,17,48,12.90
2020,07,10,17,49,18.10
2020,07,10,17,50,9.10
2020,07,10,17,51,9.70
2020,07,10,17,52,11.00
2020,07,10,17,53,11.90
2020,07,10,17,54,9.40
2020,07,10,17,55,12.80